Regional Weather Roundup
Issued by NWS Grand Forks, ND

Home | Current Version | Previous Version | Graphics & Text | Print | Product List | Glossary On
Versions: 1 2 3 4 5 6 7 8 9 10 11 12 13 14 15 16 17 18 19 20 21 22 23 24 25 26 27 28 29 30 31 32 33 34 35 36 37 38 39 40 41 42 43 44 45 46 47 48 49 50
291
ASUS43 KFGF 290431
RWRFGF
PRAIRIE TO PINES  WEATHER ROUNDUP
NATIONAL WEATHER SERVICE EASTERN NORTH DAKOTA/GRAND FORKS ND
1100 PM CDT FRI APR 28 2017

 **SATELLITE DATA USED TO AUGMENT SKY COVER AT AUTOMATED STATIONS**
 *****  WEATHER ACROSS EASTERN NORTH DAKOTA  *****

CITY           SKY/WX    TMP DP  RH WIND       PRES   REMARKS
GRAND FORKS    FAIR      38  28  67 NW6       30.16R
GRAND FRKS AFB FAIR      36  25  66 N5        30.17R
DEVILS LAKE    FAIR      40  26  57 SE5       30.18R
FARGO          FAIR      38  25  59 N6        30.16R
WAHPETON ARPT  FAIR      41  23  48 NE3       30.17R
$$

 ***** WEATHER ACROSS CENTRAL AND WESTERN NORTH DAKOTA  *****

CITY           SKY/WX    TMP DP  RH WIND       PRES   REMARKS
BISMARCK       FAIR      43  20  39 NE3       30.19R HAZE
MINOT          FAIR      45  20  36 S3        30.16R
JAMESTOWN      FAIR      40  24  53 CALM      30.16R
MINOT AFB      FAIR      38  29  69 S5        30.15R
GARRISON         N/A     42  19  39 W5        30.17R
WILLISTON      FAIR      46  24  42 SW5       30.15R
DICKINSON      FAIR      34  16  47 SE5       30.17R
HETTINGER      FAIR      36  22  56 CALM      30.20R
$$

 *****  OTHER AIRPORT OBSERVATIONS IN OUR AREA  *****

CITY           SKY/WX    TMP DP  RH WIND       PRES   REMARKS
WALHALLA       NOT AVBL
GRAFTON AIRPOR FAIR      41  18  38 NW7       30.20R
VALLEY CITY AR FAIR      41  21  45 CALM      30.19R
CANDO          NOT AVBL
CAVALIER APRT  FAIR      34  21  60 NW5       30.18R
GWINNER        CLEAR     41  23  48 MISG      30.17R
SHEYENNE NWR     N/A     42  18  37 N2        29.95S
ROLLA          FAIR      30  23  74 CALM      30.18R
 ***** THE ABOVE OBSERVATIONS ARE NON NWS ARE NOT QUALITY
       CONTROLLED AND MAY MIS-REPORT RAIN FOR SNOW...
$$

  *****  WEATHER ACROSS NORTHERN MINNESOTA  *****

CITY           SKY/WX    TMP DP  RH WIND       PRES   REMARKS
FLAG ISLAND    FAIR      37  23  56 NW3       30.15R
WARROAD        FAIR      36  14  41 NW5       30.16R
ROSEAU         FAIR      36  12  38 NW3       30.16R
HALLOCK        FAIR      36  21  55 CALM      30.18R
THF RVR FALLS  FAIR      37  17  44 N5        30.18R
BAUDETTE       FAIR      32  22  66 CALM      30.13R
WASKISH        FAIR      30  27  86 CALM      30.16R
CROOKSTON      FAIR      41  27  56 CALM      30.18R
STEPHEN NDAWN    N/A     36  23  60 N3          N/A
GREENBUSH NDAW   N/A     36  25  64 W2          N/A
$$
  *****  WEATHER ACROSS CENTRAL AND WEST MINNESOTA  *****

CITY           SKY/WX    TMP DP  RH WIND       PRES   REMARKS
FOSSTON        FAIR      28  19  69 CALM      30.17R
BEMIDJI        FAIR      29  20  67 CALM      30.15R
PARK RAPIDS    FAIR      34  17  50 N7        30.14R
ELBOW LAKE     FAIR      38  26  63 N3        30.16R
WADENA         FAIR      37  19  48 N5        30.13S
DETROIT LAKES  FAIR      39  23  52 NE3       30.16R
MOORHEAD       FAIR      37  27  65 CALM      30.17R
FERGUS FALLS   FAIR      39  21  48 CALM      30.16R
MORRIS MN      FAIR      37  25  60 N7        30.15R
STAPLES        FAIR      34  21  60 CALM      30.14R
$$
  *****  WEATHER ELSEWHERE ACROSS MINNESOTA  *****

CITY           SKY/WX    TMP DP  RH WIND       PRES   REMARKS
DULUTH         FAIR      36  26  67 N6        30.13R
INTRNTL FALLS  FAIR      28  23  81 CALM      30.14R
ELY            FAIR      27  25  93 CALM      30.14R
CLOQUET        FAIR      34  21  60 NW5       30.14S
WHEATON        FAIR      39  25  56 N6        30.19R
BRAINERD       FAIR      40  23  50 N7        30.13R
HIBBING        FAIR      26  22  84 CALM      30.14R
ALEXANDRIA     FAIR      41  22  46 N8        30.14R
SAINT CLOUD    FAIR      41  24  51 N6        30.12R
MINNEAPOLIS    FAIR      44  30  57 CALM      30.10R
$$

  *****  WEATHER ACROSS SOUTH DAKOTA  *****

CITY           SKY/WX    TMP DP  RH WIND       PRES   REMARKS
SIOUX FALLS    FAIR      39  28  64 N7        30.12R
BROOKINGS      FAIR      33  23  66 CALM      30.14R
WATERTOWN      FAIR      36  19  50 NE6       30.14R
HURON          FAIR      37  22  54 N8        30.16R
SISSETON         N/A     37  25  61 W5        30.15R
ABERDEEN       FAIR      38  23  55 N6        30.17R
MITCHELL       FAIR      38  25  59 NE8       30.13S
PIERRE         FAIR      39  18  42 E3        30.17R
MOBRIDGE       FAIR      40  13  33 NE8       30.16R
RAPID CITY     FAIR      36  26  67 NE7       30.18R
$$

  *****  SOME WEATHER IN NEARBY STATES *****

CITY           SKY/WX    TMP DP  RH WIND       PRES   REMARKS
GLASGOW MT     FAIR      44  33  65 N13       30.16R
GREAT FALLS MT FAIR      35  32  88 SW3       30.17R
CHEYENNE WY    LGT SNOW  27  24  89 NE10G20   30.08R FOG     WCI  17
SCOTTSBLUFF NE CLOUDY    34  32  92 W3        30.15R
OMAHA NE       CLOUDY    43  38  82 N10       30.05R
DES MOINES IA  CLOUDY    45  38  76 NE10      30.03R
DAVENPORT IA   CLOUDY    46  44  93 NE10      30.00R
CHICAGO IL     MOCLDY    48  39  71 N13G21    29.99R
EAU CLAIRE WI  FAIR      36  29  75 CALM      30.08S
LA CROSSE WI   MOCLDY    46  33  60 N6        30.06S
$$

  *****  SOME NATIONAL WEATHER *****

CITY           SKY/WX    TMP DP  RH WIND       PRES   REMARKS
LA GUARDIA NY  MOCLDY    74  46  36 S6        30.03S
RALEIGH NC     FAIR      78  71  79 SW13G22   30.10R
ATLANTA GA     MOCLDY    76  67  73 S6        30.10R
NEW ORLEANS LA CLOUDY    79  74  84 SE14      29.93S
OKLAHOMA CITY  CLOUDY    69  62  78 E13G23    29.67S
ALBUQUERQUE NM CLOUDY    42  32  67 NW12      29.84R
SALT LAKE CITY CLOUDY    42  36  79 N7        30.01R
LOS ANGELES CA FAIR      74  25  16 N13G21    29.79R
BOISE ID       FAIR      50  29  44 NW17      30.13R
SEATTLE WA     MOCLDY    55  37  50 N5        30.31F
$$

*** WEATHER ACROSS MANITOBA...SASKATCHEWAN AND ONTARIO ***
                ***ONTARIO***

CITY           SKY/WX    TMP DP  RH WIND       PRES   REMARKS
GERALDTON      FLURRIES  28  23  80 NW14G20   29.95R WCI  17
THUNDER BAY    MOCLDY    32  25  74 W6        30.10R
SIOUX LOOKOUT  CLOUDY    30  23  74 N2        30.10R
TORONTO        MOCLDY    59  43  55 SW9       29.96R
BIG TROUT LK   MOCLDY    28   9  43 NW6       30.03R WCI  22
PICKLE LAKE    NOT AVBL
DRYDEN         CLOUDY    36  18  48 W5        30.12R
KENORA         PTCLDY    39  10  30 N5        30.13R
$$
                *** MANITOBA***

CITY           SKY/WX    TMP DP  RH WIND       PRES   REMARKS
BRANDON        CLEAR     34  16  47 E9        30.17R
DAUPHIN        CLEAR     28  18  64 W7        30.17R WCI  21
ISLAND LAKE    MOCLDY    32  14  47 N6        30.15R
PILOT MOUND      N/A     34  16  47 E6          N/A
THE PAS        CLEAR     34  14  44 E3        30.15R
THOMPSON       MOCLDY    34  25  69 NE10      30.19R
WINNIPEG       CLEAR     34  16  47 N3        30.18R
LYNN LAKE      CLOUDY    37  27  65 E9        30.18R
CHURCHILL      CLOUDY    18  14  86 N18G25    30.30R WCI   2
GILLAM         CLOUDY    23  18  80 NE13      30.24R WCI  11
$$
                ***SASKATCHEWAN***

CITY           SKY/WX    TMP DP  RH WIND       PRES   REMARKS
ESTEVAN        PTCLDY    43  30  61 SE8       30.13R
KINDERSLEY     PTCLDY    34  32  93 W6        30.11R
LLOYDMINSTER   PTCLDY    37  28  70 W3        30.10R
PRINCE ALBERT  MOCLDY    45  32  61 SW9       30.09R
REGINA         LGT RAIN  41  34  75 NW5       30.13R
YORKTON        PTCLDY    39  23  52 SE9       30.09R
N. BATTLEFORD  CLOUDY    36  36 100 S5        30.12R
LA RONGE       PTCLDY    37  18  44 NE7       30.11R
SASKATOON      PTCLDY    37  28  70 S5        30.10R
SWIFT CURRENT  PTCLDY    39  27  60 W3        30.12R
$$
NOTE: THESE ARE AUTOMATED STATIONS WITH LIMITED QUALITY CONTROL
      "FAIR" INDICATES FEW OR NO CLOUDS BELOW 12,000 FEET WITH NO
      SIGNIFICANT WEATHER AND/OR OBSTRUCTIONS TO VISIBILITY.
      SKY/WX - SKY CONDITION AND SIGNIFICANT WEATHER.
      TMP - AIR TEMPERATURE.    DP   - DEWPOINT TEMPERATURE.
      RH  - RELATIVE HUMIDITY.  PRES - PRESSURE.
      HX  - HEAT INDEX.         WCI  - WIND CHILL INDEX.
$




USA.gov is the U.S. government's official web portal to all federal, state and local government web resources and services.